Location: Navalespino
(40.5894°N, 4.2660°W)
Time: 21:05:16
(UTC+00:00)

Cosmos 371 Rocket - Pass Details

Date: 18 April 2024
Orbit: 680 x 694 km, 74.0° (Epoch: 23 May)

Event Time Altitude Azimuth Distance (km) Brightness Sun altitude
Rises 20:12:09 0° 347° (NNW) 3,047 7.2 -13.5°
Reaches altitude 10° 20:14:36 10° 355° (N) 2,128 6.3 -14.0°
Maximum altitude 20:19:06 40° 65° (ENE) 1,006 3.8 -14.7°
Enters shadow 20:21:21 25° 118° (ESE) 1,374 4.2 -15.1°
